カタログに戻る

STARLINK-36068

運用中通信VLEO
NORAD 66845·PAYLOAD·🇺🇸 United States

打ち上げ Dec 2, 2025 から Vandenberg Space Force Base

Loading…

次のパス (今後24時間)

TLE

最新Source: CelesTrak SupGP

元期: Sep 15, 2026, 03:58 UTC

1 66845C 25280AA  26258.16576389  .00160440  00000+0  13444-1 0  2583
2 66845  70.0011 216.5766 0003113 257.5451   6.6509 14.98254831    12

AllMySatでSTARLINK-36068をリアルタイム追跡

Download on the App Store